Location: Blue Mountain Vista Observatory
(40.6992°N, 75.9422°W)
Time: 05:59:48
(UTC-04:00)

IDEFIX/ARIANE 42P - Visible Passes

Search period start: 22 May 2015 00:00
Search period end: 01 June 2015 00:00
Orbit: 786 x 803 km, 98.3° (Epoch: 21 May)

Date Brightness Start Highest point End Pass type
(mag) Time Alt. Az. Time Alt. Az. Time Alt. Az.
23 May 5.2 21:26:43 10° SW 21:29:56 16° W 21:32:56 10° NW visible
24 May 4.6 20:56:50 10° SSW 21:01:20 29° W 21:05:50 10° NW visible
26 May 5.5 21:43:33 10° WSW 21:45:03 11° W 21:46:11 10° WNW visible
27 May 5.0 21:12:24 10° SW 21:16:21 21° W 21:20:11 10° NW visible
30 May 5.2 21:28:22 10° SW 21:31:25 15° W 21:34:14 10° NW visible
31 May 4.7 20:58:20 10° SSW 21:02:49 27° W 21:07:13 10° NW visible
